[[{"header":{"parameterUnit":"m.s-1","parameterCategory":1,"la1":30.2991,"la2":30.254,"lo1":-89.0895,"lo2":-89.0444,"dy":0.0017,"dx":0.0017,"nx":28,"ny":28,"refTime":"2025-03-30T09:00:00:Z","depth":0,"parameterNumber":2,"parameterNumberName":"U-component_of_WINDS"},"data":[0,0,0,0,0,0,0,0,0,0,0,0,0,0,0,0,0,0,0,0,0,0,0,0,0,0,0,0,0,0,0,0,0,0,0,0,0,0,0,0,0,0,0,0,0,0,0,0,0,0,0,0,0,0,0,0,0,0,3.3911,3.3911,0,3.3932,3.3932,3.3933,3.3898,3.3897,3.3896,3.3895,3.3918,3.392,3.3921,0,0,0,0,0,0,0,0,0,0,0,0,0,3.3845,3.3846,3.3911,3.3911,3.3911,3.3932,3.3932,3.3933,3.3898,3.3897,3.3896,3.3894,3.3917,3.3919,3.3922,0,0,0,0,0,0,0,0,0,0,0,0,0,3.3871,3.3847,3.3911,3.3897,3.3896,3.3932,3.3932,3.3933,3.3899,3.3897,3.3895,3.3894,3.3917,3.3919,3.3922,3.3973,0,0,3.393,3.3931,0,0,0,0,0,0,0,0,3.3869,3.3873,3.3899,3.3898,3.3897,3.3911,3.3918,3.3946,3.3899,3.3898,3.3895,3.3893,3.3917,3.392,3.3927,3.3974,3.3975,3.393,3.3932,3.3933,3.3933,0,0,0,0,0,0,0,3.3867,3.3872,3.3919,3.3899,3.3898,3.3891,3.3893,3.3923,3.3917,3.3898,3.3895,3.3898,3.3916,3.3925,3.3928,3.3976,3.393,3.3932,3.3934,3.3935,3.407,3.4072,0,0,0,0,0,0,3.3867,3.3871,3.3919,3.392,3.3878,3.3893,3.3895,3.3908,3.3917,3.3916,3.39,3.3896,3.3922,3.3925,3.3928,3.3992,3.3933,3.3935,3.3937,3.4068,3.4071,3.4073,0,0,0,0,0,0,3.3866,3.3871,3.3918,3.3895,3.39,3.3896,3.3911,3.3909,3.3918,3.3918,3.3917,3.3909,3.392,3.3925,3.3963,3.3992,3.3936,3.3939,3.4066,3.4069,3.4072,3.4117,0,0,0,0,0,0,3.3864,3.3871,3.3889,3.3895,3.3901,3.3951,3.3913,3.3911,3.3922,3.3919,3.3927,3.3927,3.3919,3.396,3.3966,3.3994,3.3941,3.4063,3.4067,3.4071,3.4113,3.4121,3.4128,0,0,0,0,0,3.3862,3.3901,3.389,3.3896,3.3924,3.3953,3.3956,3.3946,3.3925,3.3944,3.3945,3.3927,3.3988,3.3964,3.3971,3.4,3.4062,3.4066,3.4071,3.4109,3.4119,3.4128,0,0,0,0,0,0,3.3897,3.3901,3.389,3.3932,3.3942,3.3947,3.397,3.3957,3.3974,3.3969,3.3957,3.3959,3.4001,3.4004,3.3977,3.4053,3.4021,3.4028,3.4048,3.4058,3.4066,3.4064,3.3943,0,0,0,0,0,3.391,3.3932,3.3935,3.3972,3.3978,3.3973,3.3985,3.3977,3.3988,3.3992,3.3995,3.4007,3.4029,3.4044,3.4064,3.4114,3.4117,3.4138,3.4146,3.4152,3.4157,3.4187,3.4197,3.4088,3.4088,3.4088,0,0,3.3937,3.3942,3.3956,3.3979,3.3986,3.4011,3.3977,3.4004,3.4022,3.3996,3.4033,3.4036,3.4049,3.4094,3.4114,3.4098,3.4189,3.4158,3.4163,3.4165,3.4193,3.4203,3.4212,3.4091,3.4091,3.409,0,0,3.3998,3.4003,3.4035,3.4044,3.4056,3.4054,3.4062,3.4069,3.4071,3.4108,3.409,3.4113,3.415,3.4161,3.4171,3.4242,3.4226,3.4249,3.4289,3.4318,3.4326,3.4334,3.4361,3.437,3.4254,3.4254,3.4255,0,3.4029,3.4064,3.4054,3.4083,3.4095,3.4074,3.4108,3.4117,3.4135,3.4144,3.4127,3.4176,3.4183,3.4232,3.425,3.4258,3.4269,3.4247,3.4326,3.4333,3.434,3.4366,3.4376,3.4257,3.4257,3.4257,3.4256,0,3.4104,3.4129,3.4154,3.4173,3.4188,3.4219,3.4216,3.4232,3.4224,3.4225,3.4265,3.4273,3.4296,3.4307,3.4299,3.4356,3.4346,3.4328,3.4296,3.4354,3.4378,3.4387,3.4261,3.426,3.4259,3.4259,0,0,3.4185,3.42,3.421,3.422,3.4233,3.4253,3.4286,3.4308,3.4324,3.4338,3.4366,3.4401,3.4385,3.4397,3.4391,3.4416,3.4474,3.4395,3.4395,3.441,3.4541,3.4555,3.4566,3.4465,3.4467,3.4468,3.454,0,3.4247,3.4301,3.4295,3.4348,3.4373,3.4355,3.4384,3.4396,3.4399,3.4421,3.4424,3.445,3.4426,3.4433,3.4458,3.4462,3.4501,3.4457,3.4492,3.4494,3.449,3.4578,3.4592,3.466,3.4549,3.4551,3.4552,0,3.4325,3.4343,3.4399,3.4412,3.4422,3.4448,3.447,3.4492,3.4507,3.4507,3.4523,3.4513,3.4548,3.4517,3.4566,3.4537,3.4552,3.4557,3.4559,3.4562,3.4526,3.4584,3.4681,3.4691,3.4566,3.4565,3.4564,0,3.438,3.4419,3.4458,3.4467,3.4483,3.4502,3.4509,3.4523,3.4538,3.4559,3.4569,3.4593,3.4607,3.4627,3.4625,3.4602,3.4676,3.4644,3.4679,3.4679,3.4694,3.4693,3.4795,3.4704,3.4704,3.4703,3.4703,0,3.445,3.4485,3.4484,3.4507,3.4548,3.4541,3.4582,3.4587,3.4601,3.4627,3.4614,3.4639,3.4635,3.4661,3.466,3.4703,3.4709,3.4711,3.4711,3.4713,3.4712,3.4722,3.4717,3.4706,3.4706,3.4705,3.4705,0,3.4517,3.4518,3.4559,3.4572,3.4576,3.4606,3.4617,3.4641,3.4644,3.4678,3.4686,3.469,3.4721,3.4722,3.4756,3.4756,3.4809,3.4802,3.4803,3.4802,3.4837,3.4834,3.4949,3.4964,3.4862,3.4863,3.4864,0,3.4561,3.4588,3.4605,3.4622,3.4631,3.4658,3.4674,3.4671,3.4689,3.4711,3.4733,3.4762,3.4786,3.4836,3.4843,3.4871,3.4866,3.4904,3.487,3.4872,3.4868,3.4867,3.487,3.4911,3.4912,3.4913,3.4914,0,3.4641,3.464,3.4664,3.4689,3.4709,3.4729,3.4747,3.4762,3.4761,3.4782,3.4813,3.4832,3.4869,3.4899,3.4927,3.4937,3.4926,3.4925,3.4935,3.4936,3.4936,3.4938,3.4822,3.4922,3.4921,3.492,3.492,3.492,3.4698,3.4723,3.4739,3.4767,3.4781,3.4799,3.4823,3.483,3.4856,3.4885,3.4882,3.4918,3.4937,3.4973,3.4986,3.5015,3.5002,3.5016,3.5019,3.5023,3.5027,3.4932,3.502,3.502,3.502,3.5019,3.5019,0,3.4778,3.4788,3.4814,3.4841,3.4864,3.4852,3.4873,3.4893,3.4924,3.4943,3.4967,3.5005,3.5035,3.5047,3.5077,3.5099,3.5095,3.5107,3.5105,3.5108,3.5036,3.5025,3.511,3.511,3.511,3.511,3.511,3.511,3.4821,3.4863,3.4865,3.4915,3.4925,3.496,3.4973,3.4991,3.5006,3.5049,3.5074,3.5082,3.5099,3.5131,3.5159,3.5162,3.5175,3.5189,3.519,3.5122,3.5113,3.5104,3.5094,3.5191,3.5192,3.526,3.526,3.5261]},{"header":{"parameterUnit":"m.s-1","parameterCategory":1,"la1":30.2991,"la2":30.254,"lo1":-89.0895,"lo2":-89.0444,"dy":0.0017,"dx":0.0017,"nx":28,"ny":28,"refTime":"2025-03-30T09:00:00:Z","depth":0,"parameterNumber":3,"parameterNumberName":"V-component_of_WINDS"},"data":[0,0,0,0,0,0,0,0,0,0,0,0,0,0,0,0,0,0,0,0,0,0,0,0,0,0,0,0,0,0,0,0,0,0,0,0,0,0,0,0,0,0,0,0,0,0,0,0,0,0,0,0,0,0,0,0,0,0,2.9224,2.9227,0,2.9455,2.9458,2.9461,2.9528,2.9527,2.9526,2.9525,2.9767,2.9774,2.9782,0,0,0,0,0,0,0,0,0,0,0,0,0,2.8847,2.8854,2.9224,2.9227,2.923,2.9455,2.9458,2.9461,2.9529,2.9527,2.9526,2.9524,2.9764,2.9773,2.9782,0,0,0,0,0,0,0,0,0,0,0,0,0,2.9038,2.8856,2.9223,2.929,2.9299,2.9454,2.9458,2.9462,2.9529,2.9527,2.9525,2.9523,2.9761,2.9772,2.9784,2.9891,0,0,2.9819,2.9823,0,0,0,0,0,0,0,0,2.9027,2.9052,2.9278,2.9286,2.9295,2.9461,2.9414,2.9606,2.9529,2.9442,2.9525,2.9523,2.9667,2.9686,2.9734,2.9902,2.9913,2.982,2.9826,2.9831,2.9835,0,0,0,0,0,0,0,2.9014,2.9042,2.9316,2.9281,2.9292,2.9311,2.9336,2.9451,2.9562,2.9449,2.9455,2.9481,2.9672,2.9722,2.974,2.9916,2.9819,2.9829,2.9836,2.9841,3.0189,3.0192,0,0,0,0,0,0,2.8988,2.9031,2.9308,2.9323,2.9154,2.9319,2.9347,2.941,2.9561,2.9582,2.9482,2.9483,2.9704,2.9726,2.9749,2.9887,2.9831,2.9842,2.9848,3.0187,3.019,3.0193,0,0,0,0,0,0,2.898,2.9012,2.9299,2.9178,2.9216,2.9328,2.9397,2.9415,2.9466,2.9586,2.9607,2.9513,2.9703,2.9733,2.9856,2.9896,2.9847,2.9857,3.0184,3.0188,3.0191,3.0163,0,0,0,0,0,0,2.8969,2.9009,2.9049,2.9179,2.9222,2.94,2.94,2.9421,2.9485,2.9489,2.9621,2.9641,2.9704,2.9838,2.9867,2.9911,2.9866,3.0181,3.0186,3.019,3.0161,3.0165,3.0169,0,0,0,0,0,2.8955,2.9032,2.9051,2.9084,2.9275,2.9402,2.9428,2.9497,2.9488,2.9531,2.9608,2.9637,2.9887,2.985,2.9883,2.9931,3.0179,3.0184,3.019,3.0159,3.0165,3.0169,0,0,0,0,0,0,2.8906,2.905,2.9073,2.9193,2.9285,2.9413,2.9469,2.95,2.9598,2.9597,2.9681,2.9711,2.9828,2.9892,2.9849,3.0046,3.0034,3.0046,3.0,3.0006,3.001,2.9993,2.9876,0,0,0,0,0,2.8909,2.8998,2.9121,2.9216,2.926,2.9357,2.9415,2.9461,2.956,2.9599,2.9685,2.9782,2.9883,2.9947,3.0047,3.017,3.0202,3.022,3.0224,3.0227,3.0237,3.0311,3.0321,3.021,3.021,3.021,0,0,2.8917,2.9007,2.9058,2.9208,2.9285,2.9378,2.9389,2.9487,2.9558,2.9615,2.9737,2.9803,2.9917,3.0041,3.0101,3.0098,3.0274,3.0234,3.0235,3.0244,3.0317,3.0328,3.0337,3.0214,3.0214,3.0213,0,0,2.8979,2.9054,2.9143,2.922,2.9335,2.9399,2.942,2.9544,2.9591,2.9714,2.976,2.9846,3.0017,3.0097,3.016,3.0255,3.0286,3.0285,3.0307,3.0378,3.0387,3.0395,3.0432,3.0443,3.0294,3.0294,3.0294,0,2.8974,2.9115,2.9186,2.9282,2.9348,2.9403,2.9496,2.9567,2.9709,2.9754,2.9749,2.9967,3.0047,3.0192,3.0216,3.0264,3.0293,3.0271,3.0379,3.0388,3.0397,3.0433,3.0446,3.0294,3.0294,3.0294,3.0294,0,2.9105,2.9202,2.9261,2.9396,2.9469,2.9562,2.965,2.9715,2.9755,2.9821,2.9948,3.0046,3.0167,3.0205,3.0245,3.0357,3.0353,3.0362,3.0353,3.0406,3.0441,3.0455,3.0293,3.0293,3.0293,3.0293,0,0,2.9143,2.9317,2.9337,2.9401,2.9533,2.961,2.9708,2.9825,2.9881,2.9978,3.0064,3.0208,3.0219,3.029,3.034,3.0402,3.0475,3.0405,3.0409,3.0417,3.0609,3.0603,3.0617,3.0495,3.0498,3.0501,3.06,0,2.9224,2.9399,2.9466,2.961,2.9703,2.9757,2.9843,2.9934,2.9998,3.0088,3.016,3.0262,3.0266,3.031,3.0373,3.0452,3.0515,3.0446,3.058,3.0584,3.0552,3.0635,3.0629,3.0718,3.0614,3.0617,3.0618,0,2.9341,2.9439,2.9591,2.9714,2.9756,2.9831,2.9946,3.003,3.0136,3.0179,3.0259,3.0306,3.0414,3.0396,3.0547,3.0499,3.0558,3.0605,3.061,3.0628,3.0606,3.0658,3.0748,3.0762,3.0641,3.0639,3.0637,0,2.9357,2.9526,2.9641,2.9693,2.9838,2.9891,2.9954,3.0058,3.0126,3.0226,3.0272,3.0384,3.0446,3.0533,3.061,3.0589,3.0756,3.0743,3.0797,3.0795,3.0831,3.0828,3.0935,3.0864,3.0864,3.0864,3.0863,0,2.9442,2.9534,2.965,2.972,2.9826,2.9904,3.0007,3.0075,3.0168,3.0254,3.0308,3.0388,3.0484,3.0577,3.0638,3.0756,3.0783,3.0823,3.0839,3.082,3.0815,3.0861,3.0858,3.0867,3.0867,3.0866,3.0865,0,2.9478,2.9559,2.9687,2.9815,2.9849,2.9922,3.0032,3.0104,3.0171,3.028,3.031,3.0416,3.0529,3.0614,3.0761,3.0802,3.0929,3.0943,3.0892,3.0901,3.0951,3.0946,3.1093,3.1118,3.1027,3.1028,3.1028,0,2.9528,2.96,2.9735,2.9797,2.986,2.9957,3.0026,3.0106,3.0177,3.0304,3.0362,3.0479,3.0576,3.0756,3.0847,3.096,3.098,3.1024,3.0998,3.0978,3.0985,3.0981,3.099,3.1028,3.1029,3.1029,3.103,0,2.9609,2.9646,2.9742,2.9854,2.9934,3.0026,3.0119,3.0167,3.0264,3.0341,3.0457,3.0533,3.0683,3.08,3.0923,3.0991,3.1028,3.1037,3.1056,3.1039,3.1007,3.1028,3.0905,3.1034,3.1033,3.1033,3.1033,3.1033,2.9656,2.9724,2.983,2.9937,3.0015,3.0101,3.0176,3.0252,3.0349,3.0477,3.0519,3.064,3.0748,3.0917,3.0986,3.1084,3.1084,3.111,3.1118,3.1124,3.1124,3.0989,3.1106,3.1106,3.1106,3.1106,3.1106,0,2.9743,2.9814,2.9911,3.0039,3.0124,3.0149,3.0254,3.0324,3.0429,3.0525,3.0621,3.0756,3.087,3.097,3.1089,3.1148,3.1169,3.1177,3.1175,3.1191,3.1115,3.1089,3.1159,3.1159,3.1159,3.1159,3.1159,3.1159,2.9798,2.9915,2.9964,3.0122,3.0194,3.0311,3.037,3.0451,3.0528,3.0676,3.0771,3.0834,3.0934,3.1061,3.1168,3.1195,3.1238,3.1242,3.1274,3.1202,3.1196,3.119,3.1165,3.125,3.125,3.1342,3.1343,3.1343]}]]